This is the latest recevied weather packets stored in our database for station/object KC3UTO. If no packets are shown the sender has not sent any weather packets the latest 10 day(s).
| Time | Temp. | Humidity | Pressure | Rain* | Wind** | Luminosity | Snow |
|---|---|---|---|---|---|---|---|
| 1777825606 | 11.11° C | 34% | 1013.1 hPa | 0 mm | - | 219 W/m² | - |
| 1777825304 | 11.11° C | 35% | 1013.1 hPa | 0 mm | - | 1146 W/m² | - |
| 1777825001 | 11.67° C | 33% | 1013.2 hPa | 0 mm | - | 249 W/m² | - |
| 1777824697 | 12.22° C | 33% | 1013.2 hPa | 0 mm | - | 287 W/m² | - |
| 1777824394 | 11.67° C | 36% | 1013.2 hPa | 0 mm | - | 329 W/m² | - |
| 1777824090 | 10.56° C | 39% | 1013.3 hPa | 0 mm | - | 996 W/m² | - |
| 1777823786 | 10.56° C | 38% | 1013.4 hPa | 0 mm | - | 319 W/m² | - |
| 1777823484 | 10° C | 41% | 1013.5 hPa | 0 mm | - | 320 W/m² | - |
| 1777823181 | 10.56° C | 38% | 1013.5 hPa | 0 mm | - | 237 W/m² | - |
| 1777822879 | 11.67° C | 35% | 1013.4 hPa | 0 mm | - | 238 W/m² | - |
| 1777822576 | 11.67° C | 37% | 1013.4 hPa | 0 mm | - | 260 W/m² | - |
| 1777822274 | 11.11° C | 39% | 1013.4 hPa | 0 mm | - | 360 W/m² | - |
| 1777821971 | 10.56° C | 39% | 1013.5 hPa | 0 mm | - | 1013 W/m² | - |
| 1777821669 | 10.56° C | 38% | 1013.7 hPa | 0 mm | - | 285 W/m² | - |
| 1777821366 | 10.56° C | 39% | 1013.5 hPa | 0 mm | - | 755 W/m² | - |
| 1777821063 | 10° C | 40% | 1013.7 hPa | 0 mm | - | 521 W/m² | - |
| 1777820759 | 10.56° C | 40% | 1013.6 hPa | 0 mm | - | 279 W/m² | - |
| 1777820456 | 9.44° C | 42% | 1013.7 hPa | 0 mm | - | 982 W/m² | - |
| 1777820153 | 8.89° C | 43% | 1013.6 hPa | 0 mm | - | 162 W/m² | - |
| 1777819850 | 10° C | 43% | 1013.6 hPa | 0 mm | - | 213 W/m² | - |
| 1777819548 | 11.11° C | 40% | 1013.6 hPa | 0 mm | - | 213 W/m² | - |
| 1777819245 | 11.11° C | 39% | 1013.7 hPa | 0 mm | - | 912 W/m² | - |
| 1777818942 | 10.56° C | 44% | 1013.7 hPa | 0 mm | - | 850 W/m² | - |
| 1777818638 | 10° C | 43% | 1013.9 hPa | 0 mm | - | 495 W/m² | - |
| 1777818336 | 9.44° C | 44% | 1013.8 hPa | 0 mm | - | 739 W/m² | - |
* Rain latest hour (hover to see other rain measurements)
** Current wind speed in m/s (hover to see current wind gust speed)